Wind_Speed
15 15 15 15 14 15 15 15 16 15 15 17 18 19 19 19 20 21 21 22 22 22 21 21 21 21 22 22 22 22 21 22 22 22 22 22 21 21 21 22 22 23 23
15 15 15 15 15 15 16 15 15 16 17 17 17 18 18 19 20 20 20 21 21 22 22 22 22 22 22 23 23 23 24 24 24 24 23 23 23 23 24 25 25 25 26
16 16 16 15 15 15 16 16 16 16 16 17 17 18 19 20 20 21 21 21 21 22 22 23 24 24 24 24 24 24 25 25 25 25 26 26 26 27 27 27 28 28 29
16 16 15 15 15 16 16 16 16 17 17 17 17 18 19 19 20 21 22 21 22 22 23 24 24 24 25 25 26 26 27 27 27 28 28 28 29 29 29 30 31 32 32
15 16 15 15 15 16 16 16 17 17 17 18 18 18 18 19 19 20 20 21 21 22 23 24 25 25 26 27 27 28 28 28 29 29 30 30 31 31 31 32 33 33 34
14 14 14 14 14 15 16 17 17 17 17 17 18 18 19 19 20 20 20 21 22 22 23 24 25 26 27 27 28 29 30 31 31 32 32 32 33 34 33 33 34 35 35
12 13 13 14 14 14 15 15 15 15 16 16 16 17 18 19 19 20 20 22 22 22 23 24 25 25 26 28 29 30 32 32 32 33 33 34 35 36 36 36 37 37 38
12 12 13 13 13 14 14 15 15 15 15 15 16 17 17 17 18 20 21 21 21 22 23 25 25 26 27 28 29 30 32 32 33 33 34 35 36 36 37 38 38 38 39
14 13 14 14 14 14 15 15 15 15 15 15 15 16 16 16 17 19 20 20 21 22 24 24 26 27 28 29 29 30 32 33 34 35 34 35 34 35 36 38 38 38 38
15 15 14 14 14 14 15 15 15 15 15 15 15 15 15 16 17 18 19 20 21 23 24 25 26 27 29 30 30 31 32 32 33 33 34 33 33 34 35 36 37 38 38
15 15 15 15 15 15 15 15 16 16 16 15 16 16 16 17 18 19 20 21 23 24 25 26 27 28 29 31 31 31 32 32 32 32 32 33 34 35 36 36 38 38 38
16 16 16 16 15 15 15 16 16 16 15 16 16 16 17 18 18 19 20 22 23 24 25 26 27 28 29 30 30 31 31 30 31 31 32 34 35 35 36 37 38 38 40
17 17 17 16 16 16 16 16 16 16 16 17 17 18 18 18 19 20 20 21 22 23 24 24 25 26 26 27 29 30 30 30 30 32 34 35 36 36 37 38 39 40 42
17 17 17 17 17 17 18 17 17 17 17 18 18 19 19 19 20 21 21 22 22 23 24 25 26 27 27 28 29 29 30 32 33 35 36 37 38 38 39 40 41 42 43
18 18 18 18 18 18 18 18 18 18 19 19 20 20 20 20 21 22 23 23 24 25 26 27 27 28 28 29 31 32 33 34 36 37 38 39 40 41 42 43 44 45 46
19 18 19 19 19 18 18 18 18 18 18 19 20 20 21 22 23 24 25 25 26 26 27 28 29 30 31 33 34 35 36 37 39 40 41 42 43 43 44 45 46 46 47
20 19 19 19 18 18 18 18 18 19 19 20 21 22 23 24 25 26 26 26 27 27 28 29 31 32 34 35 37 38 39 40 41 42 43 43 44 45 46 46 47 47 48
19 19 19 19 19 19 19 19 20 21 21 22 23 23 24 25 26 26 27 28 28 29 31 32 34 35 36 38 39 40 41 41 42 42 43 44 44 45 46 46 46 46 46
19 19 20 20 19 19 20 20 21 21 22 22 22 23 24 24 25 26 27 29 30 32 33 35 36 38 38 39 40 41 41 41 42 42 43 43 44 44 44 45 45 45 44
20 20 19 19 19 20 20 21 21 21 21 22 22 23 24 25 26 28 29 31 32 34 35 36 37 38 39 39 39 40 41 41 42 42 42 42 43 43 43 43 42 42 41
19 19 19 19 19 20 20 21 21 21 22 23 23 24 26 27 28 29 30 32 34 35 36 37 38 38 39 39 39 40 40 41 41 41 41 41 41 40 40 39 38 37 37
18 18 19 19 20 20 21 22 22 22 22 24 25 26 27 28 29 31 32 33 34 35 36 37 37 37 37 38 38 38 39 39 39 39 38 38 38 37 36 35 35 34 34
17 17 18 19 20 20 20 20 21 22 23 25 26 27 28 30 31 32 33 34 35 35 36 36 36 36 36 36 37 37 37 36 36 37 36 36 35 35 34 34 33 33 34
16 17 18 18 19 20 20 21 22 23 25 26 27 29 30 31 32 33 34 34 35 35 35 35 35 36 36 35 35 35 35 35 35 34 34 34 33 33 33 32 32 32 32
17 18 18 19 19 20 21 22 24 25 26 28 29 30 31 32 33 33 34 34 34 35 35 35 35 34 34 34 34 34 34 33 33 33 33 32 31 31 31 31 31 30 30
17 18 19 19 20 21 23 24 26 27 28 29 30 31 31 32 33 33 33 34 34 34 34 34 33 32 32 32 32 32 32 32 32 31 31 30 30 30 30 29 29 29 29
Wind_Direction
275 275 273 272 269 266 265 265 261 261 261 260 260 257 254 253 251 251 252 252 253 255 257 258 259 260 260 260 262 265 267 269 272 273 274 273 272 274 278 278 277 278 279
273 275 275 272 268 264 264 264 262 263 263 260 260 259 255 253 251 250 250 252 253 254 256 257 258 259 261 262 263 265 267 268 271 273 274 274 273 276 278 277 278 279 279
271 274 275 272 268 265 265 262 262 265 263 260 259 260 256 255 253 252 253 253 253 254 256 258 259 261 262 263 263 265 267 269 270 271 273 274 275 275 276 277 279 280 278
272 272 274 272 270 268 266 263 262 265 264 263 261 262 258 255 256 256 256 255 255 256 258 259 261 263 264 264 265 267 268 271 272 273 275 276 276 276 276 277 279 281 280
273 270 270 271 273 270 268 267 265 264 265 265 263 260 258 257 259 259 258 256 256 258 258 259 261 262 264 266 267 268 269 271 272 274 275 276 276 276 277 277 279 280 280
277 275 275 273 273 273 272 271 267 265 266 267 265 260 260 261 262 264 261 259 258 260 263 263 264 264 266 268 269 270 271 273 273 274 275 276 275 276 277 278 278 279 281
279 280 278 275 277 276 276 276 273 270 268 268 266 264 264 263 264 264 263 263 262 265 268 268 267 269 271 271 272 273 274 275 277 277 276 275 275 276 277 278 280 281 281
283 281 278 279 279 279 277 278 277 275 273 273 269 269 269 267 268 268 265 265 265 268 270 271 271 272 273 272 274 275 277 277 279 279 278 278 279 279 280 280 281 282 283
283 281 278 278 281 282 279 279 280 279 276 276 275 273 271 270 271 271 267 266 268 270 270 272 273 273 276 276 278 280 281 281 282 282 281 283 283 283 284 283 282 282 283
281 282 281 279 281 282 282 282 279 277 277 276 275 273 275 276 277 275 270 270 271 272 272 274 274 277 279 281 283 284 285 285 285 283 283 284 284 285 285 285 285 284 284
278 281 281 281 282 283 283 282 280 278 276 275 275 274 277 279 278 277 275 274 274 276 277 278 279 280 282 284 285 286 287 287 286 286 287 286 286 287 287 286 287 287 289
276 279 280 281 282 282 281 281 281 279 276 276 276 277 278 280 281 283 283 282 279 279 280 282 284 285 286 287 287 289 290 290 289 287 288 288 288 289 289 289 289 289 289
275 276 278 280 280 280 282 282 279 278 280 281 281 280 281 282 284 285 287 287 286 284 285 287 289 291 291 291 292 292 292 291 291 290 290 289 289 289 289 290 290 289 290
276 276 276 278 280 282 283 282 281 279 279 279 281 283 283 284 285 288 291 293 293 291 290 290 290 291 292 293 293 293 293 293 293 292 291 291 290 290 291 291 291 290 290
277 276 276 276 278 282 284 284 283 282 282 283 283 283 284 286 288 290 291 292 293 293 292 291 291 291 292 292 293 294 295 294 294 293 293 292 292 292 292 292 292 292 292
276 275 275 277 278 280 281 284 285 286 285 285 285 285 286 289 291 292 293 293 293 293 293 293 292 292 293 294 294 294 294 294 294 293 293 293 293 293 293 293 293 293 292
274 274 275 276 277 278 280 281 284 286 288 287 287 287 288 290 291 291 292 294 294 295 295 295 295 295 295 295 295 295 295 295 295 294 294 294 294 295 295 295 295 295 295
275 275 275 274 276 278 279 281 284 286 288 288 288 289 291 293 294 293 293 294 296 297 297 297 297 297 297 297 297 296 296 296 296 296 296 296 296 296 296 296 296 297 297
275 275 275 275 276 279 281 283 285 286 288 290 290 291 292 294 294 293 294 296 297 298 299 300 300 299 299 299 298 298 298 298 298 298 299 299 299 298 298 298 298 298 299
272 272 275 276 278 280 283 285 287 287 289 291 292 292 293 295 296 296 298 299 299 300 300 300 301 301 301 301 300 300 301 301 301 301 301 300 300 299 300 300 300 300 301
273 273 274 278 281 282 283 285 286 288 288 289 291 293 294 296 297 298 299 300 301 302 302 302 303 303 302 302 303 303 303 303 302 302 302 302 302 302 303 303 303 303 303
275 276 276 277 279 282 283 284 285 288 290 292 294 296 297 299 300 301 302 303 303 304 305 305 305 305 305 305 305 305 305 304 304 304 305 305 305 305 305 305 305 304 304
275 276 277 280 283 285 285 288 291 293 295 296 297 298 299 300 301 302 303 304 304 305 305 306 307 307 307 306 306 306 307 307 307 307 307 307 307 307 307 307 306 306 306
277 281 283 285 287 289 291 293 295 296 297 298 299 300 301 302 302 303 304 305 305 305 305 306 307 307 307 307 307 307 308 308 309 309 309 309 309 308 308 308 309 309 309
278 281 283 286 289 292 294 295 296 297 298 299 300 301 302 303 304 304 305 305 305 306 305 306 307 307 307 307 308 309 309 309 310 311 311 311 311 311 311 312 312 311 311
280 283 286 288 290 292 294 295 296 298 299 300 301 302 303 303 304 305 305 306 306 306 307 307 308 308 308 309 309 310 311 311 312 312 313 313 313 313 313 313 314 314 314
Height
5854 5854 5854 5854 5854 5855 5856 5857 5858 5859 5860 5860 5861 5862 5863 5864 5866 5867 5869 5871 5872 5873 5875 5876 5876 5877 5878 5878 5879 5879 5880 5880 5880 5880 5880 5880 5879 5879 5879 5878 5878 5877 5877
5850 5851 5851 5850 5851 5852 5853 5854 5854 5855 5856 5856 5857 5857 5858 5860 5861 5863 5864 5866 5867 5868 5869 5870 5871 5872 5872 5873 5873 5874 5874 5874 5874 5874 5874 5873 5873 5873 5873 5872 5871 5871 5871
5847 5847 5847 5847 5847 5848 5849 5849 5850 5851 5852 5852 5852 5853 5854 5856 5857 5858 5859 5860 5862 5863 5864 5865 5866 5866 5867 5867 5868 5868 5868 5868 5868 5868 5868 5867 5867 5867 5866 5865 5864 5864 5863
5844 5844 5844 5844 5844 5844 5845 5845 5846 5847 5848 5848 5848 5849 5850 5851 5852 5853 5854 5855 5856 5857 5858 5859 5860 5860 5861 5861 5861 5862 5862 5862 5862 5861 5861 5860 5860 5859 5859 5858 5857 5856 5855
5840 5840 5840 5840 5840 5841 5841 5842 5842 5843 5843 5844 5844 5845 5846 5847 5847 5848 5849 5850 5851 5852 5852 5853 5854 5854 5854 5855 5855 5855 5855 5855 5855 5854 5854 5853 5852 5852 5851 5850 5849 5848 5847
5837 5837 5837 5837 5837 5837 5837 5838 5838 5838 5839 5839 5840 5840 5841 5842 5842 5843 5844 5845 5845 5846 5846 5847 5848 5848 5848 5848 5848 5848 5848 5847 5847 5846 5846 5845 5844 5843 5842 5841 5840 5839 5838
5834 5834 5834 5834 5834 5834 5834 5834 5834 5834 5835 5835 5836 5836 5837 5837 5838 5838 5839 5839 5840 5840 5841 5841 5841 5841 5841 5841 5841 5841 5840 5839 5838 5838 5837 5836 5835 5834 5833 5832 5830 5829 5828
5832 5831 5831 5831 5831 5831 5831 5831 5831 5831 5831 5832 5832 5832 5833 5833 5833 5833 5834 5834 5835 5835 5835 5835 5835 5835 5835 5834 5833 5833 5832 5831 5830 5829 5828 5827 5825 5824 5823 5822 5820 5819 5817
5829 5829 5829 5828 5828 5828 5828 5828 5828 5828 5828 5828 5828 5828 5828 5829 5829 5829 5828 5829 5829 5829 5829 5829 5829 5829 5828 5827 5826 5825 5824 5823 5821 5820 5819 5817 5816 5815 5813 5811 5810 5808 5806
5826 5826 5826 5825 5825 5825 5825 5824 5824 5824 5824 5824 5824 5824 5825 5824 5824 5824 5824 5824 5824 5823 5823 5823 5822 5822 5821 5820 5819 5818 5816 5814 5813 5811 5810 5808 5806 5805 5803 5801 5799 5797 5795
5823 5823 5823 5822 5822 5822 5821 5821 5820 5820 5821 5821 5821 5821 5821 5820 5820 5819 5819 5818 5818 5817 5817 5816 5815 5815 5814 5813 5811 5810 5808 5806 5804 5803 5801 5799 5797 5795 5793 5790 5788 5786 5784
5820 5819 5819 5819 5819 5818 5818 5817 5817 5817 5817 5817 5817 5817 5817 5816 5815 5814 5814 5813 5812 5811 5810 5809 5809 5808 5806 5805 5803 5801 5800 5798 5796 5794 5792 5790 5788 5785 5783 5780 5777 5775 5772
5815 5815 5815 5815 5815 5814 5814 5814 5813 5813 5813 5813 5813 5813 5812 5811 5811 5810 5809 5808 5806 5805 5804 5803 5802 5801 5799 5797 5795 5793 5791 5789 5787 5785 5783 5780 5778 5775 5772 5769 5766 5763 5760
5811 5811 5811 5811 5811 5810 5810 5809 5809 5809 5809 5809 5808 5808 5807 5806 5806 5805 5804 5802 5801 5799 5798 5797 5795 5794 5792 5790 5788 5785 5783 5781 5778 5776 5773 5770 5767 5764 5761 5758 5755 5751 5748
5806 5806 5806 5806 5806 5806 5805 5805 5805 5804 5804 5803 5803 5802 5802 5801 5800 5799 5798 5796 5794 5793 5791 5790 5788 5786 5784 5782 5779 5777 5774 5771 5768 5765 5762 5759 5755 5752 5749 5745 5741 5738 5734
5801 5801 5801 5801 5801 5801 5801 5800 5800 5799 5799 5798 5798 5797 5796 5795 5794 5793 5791 5789 5788 5786 5784 5782 5780 5778 5776 5773 5770 5767 5764 5761 5757 5754 5750 5746 5743 5739 5735 5731 5727 5723 5719
5796 5796 5796 5796 5796 5796 5796 5796 5795 5795 5794 5793 5792 5791 5790 5789 5788 5786 5784 5782 5781 5779 5777 5774 5772 5769 5766 5763 5760 5756 5753 5749 5745 5742 5738 5734 5730 5725 5721 5717 5713 5708 5704
5791 5791 5791 5791 5791 5791 5791 5790 5790 5789 5788 5787 5786 5785 5784 5782 5781 5779 5777 5775 5773 5771 5768 5766 5763 5759 5756 5753 5749 5745 5741 5737 5733 5729 5724 5720 5716 5711 5707 5703 5698 5694 5689
5786 5786 5786 5786 5786 5786 5786 5785 5784 5783 5782 5781 5780 5779 5777 5776 5774 5772 5770 5768 5765 5762 5760 5756 5753 5749 5746 5742 5737 5733 5729 5725 5720 5716 5711 5707 5702 5698 5693 5689 5685 5680 5675
5780 5781 5781 5781 5781 5781 5780 5779 5779 5778 5777 5775 5774 5772 5771 5769 5767 5765 5762 5760 5757 5753 5750 5746 5742 5738 5734 5730 5726 5721 5717 5713 5708 5703 5699 5694 5689 5685 5680 5676 5671 5667 5662
5776 5775 5776 5776 5775 5775 5774 5774 5773 5772 5770 5769 5768 5766 5764 5762 5760 5757 5754 5751 5747 5744 5740 5736 5732 5728 5723 5719 5714 5710 5705 5700 5696 5691 5686 5682 5677 5673 5668 5664 5659 5655 5651
5770 5770 5770 5770 5770 5769 5768 5768 5766 5765 5764 5763 5761 5759 5757 5754 5751 5748 5745 5742 5738 5734 5730 5726 5722 5717 5712 5708 5703 5698 5694 5689 5684 5679 5675 5670 5666 5662 5657 5653 5649 5645 5641
5766 5765 5765 5765 5764 5764 5763 5761 5760 5759 5758 5756 5754 5751 5749 5746 5743 5740 5736 5732 5728 5724 5720 5716 5712 5707 5702 5698 5693 5688 5684 5679 5674 5669 5665 5661 5656 5652 5648 5644 5640 5636 5632
5761 5760 5760 5760 5759 5758 5757 5756 5754 5753 5751 5749 5746 5743 5741 5737 5734 5731 5727 5723 5719 5715 5710 5706 5702 5697 5692 5688 5683 5679 5674 5670 5665 5661 5656 5652 5647 5643 5639 5635 5631 5627 5623
5756 5755 5755 5754 5753 5752 5751 5749 5748 5746 5743 5741 5738 5735 5732 5729 5725 5721 5718 5713 5709 5705 5701 5696 5692 5688 5683 5679 5674 5670 5666 5661 5657 5652 5648 5643 5639 5635 5631 5627 5623 5619 5615
5750 5750 5749 5748 5747 5746 5744 5743 5741 5738 5736 5733 5730 5726 5723 5720 5716 5712 5708 5704 5700 5696 5691 5687 5683 5678 5674 5670 5666 5662 5657 5653 5649 5645 5640 5636 5632 5628 5624 5620 5616 5612 5608